EW0349 Weather Reports


time (UTC)temp
C
wind
direction
speed
KPH
gust
KPH
rain 1hr
cm
rain 24hr
cm
rain mn
cm
humidity
%
barometer
mb
20260503203106 26 22 1.6 8.0 0.00 0.00 0.00 50 1009.4
20260503201557 26 84 1.6 8.0 0.00 0.00 0.00 51 1009.7
20260503200052 26 42 1.6 4.8 0.00 0.00 0.00 50 1009.8
20260503194550 25 277 0.0 6.4 0.00 0.00 0.00 53 1010.1
20260503193046 25 79 1.6 4.8 0.00 0.00 0.00 53 1010.2
20260503191540 23 65 1.6 4.8 0.00 0.00 0.00 56 1010.4
20260503190044 23 92 1.6 8.0 0.00 0.00 0.00 57 1010.5
20260503184530 22 28 1.6 6.4 0.00 0.00 0.00 58 1010.7
20260503183027 22 47 1.6 6.4 0.00 0.00 0.00 58 1010.9
20260503181522 21 61 1.6 8.0 0.00 0.00 0.00 57 1011.0
20260503180017 21 53 0.0 6.4 0.00 0.00 0.00 58 1011.1
20260503174512 20 69 1.6 6.4 0.00 0.00 0.00 61 1011.2
20260503173016 20 64 1.6 11.3 0.00 0.00 0.00 61 1011.2
20260503171503 19 17 4.8 9.7 0.00 0.00 0.00 60 1011.3
20260503100114 10 263 0.0 1.6 0.00 0.00 0.00 100 1011.7
20260503081544 11 263 0.0 0.0 0.00 0.00 0.00 22 1011.9
20260503071532 12 263 0.0 0.0 0.00 0.00 0.00 34 1012.3
20260503054525 13 263 0.0 0.0 0.00 0.00 0.00 53 1012.3
20260503053009 13 263 0.0 3.2 0.00 0.00 0.00 56 1012.2
20260503051508 14 263 0.0 0.0 0.00 0.00 0.00 59 1012.4
20260503050007 15 263 0.0 3.2 0.00 0.00 0.00 61 1012.4
20260503044511 15 263 0.0 1.6 0.00 0.00 0.00 63 1012.3
20260503043006 15 263 0.0 1.6 0.00 0.00 0.00 65 1012.3
20260503041506 15 263 0.0 0.0 0.00 0.00 0.00 65 1012.2
20260503040005 15 263 0.0 3.2 0.00 0.00 0.00 66 1011.9
20260503034504 15 263 0.0 1.6 0.00 0.00 0.00 66 1011.7
20260503033006 16 263 0.0 3.2 0.00 0.00 0.00 66 1011.5
20260503031504 15 57 1.6 3.2 0.00 0.00 0.00 67 1011.3
20260503030004 16 60 0.0 1.6 0.00 0.00 0.00 67 1011.3
20260503024502 16 60 0.0 1.6 0.00 0.00 0.00 67 1010.9
20260503023002 16 61 0.0 1.6 0.00 0.00 0.00 68 1011.0
20260503021600 16 61 0.0 4.8 0.00 0.00 0.00 68 1011.2
20260503020058 16 65 0.0 3.2 0.00 0.00 0.00 67 1011.9
20260503014610 16 52 0.0 3.2 0.00 0.00 0.00 68 1012.3
20260503013057 17 60 0.0 6.4 0.00 0.00 0.00 67 1012.7
20260503011557 17 88 0.0 3.2 0.00 0.00 0.00 66 1012.5
20260503010056 17 88 0.0 4.8 0.00 0.00 0.00 66 1012.2
20260503004556 17 89 0.0 4.8 0.00 0.00 0.00 66 1012.1
20260503003104 17 91 1.6 8.0 0.00 0.00 0.00 65 1011.9
20260503001609 17 48 0.0 3.2 0.00 0.00 0.00 65 1011.8
20260503000057 17 94 0.0 4.8 0.00 0.00 0.00 64 1011.7
20260502234553 17 107 1.6 8.0 0.00 0.00 0.00 64 1011.7
20260502233051 17 92 1.6 8.0 0.00 0.00 0.00 64 1011.8
20260502231550 17 65 3.2 8.0 0.00 0.00 0.00 63 1011.9
20260502230048 17 74 1.6 4.8 0.00 0.00 0.00 65 1012.2
20260502224544 17 44 1.6 8.0 0.00 0.00 0.00 66 1012.6
20260502223042 17 92 3.2 8.0 0.00 0.00 0.00 65 1012.8
20260502221544 16 67 0.0 4.8 0.00 0.00 0.00 67 1013.0
20260502220040 16 22 3.2 8.0 0.00 0.00 0.00 66 1013.2
20260502214547 16 90 1.6 8.0 0.00 0.00 0.00 65 1013.2
20260502213039 16 86 1.6 9.7 0.00 0.00 0.00 64 1013.3
20260502211535 16 98 1.6 8.0 0.00 0.00 0.00 63 1013.5
20260502210034 17 108 4.8 11.3 0.00 0.00 0.00 62 1013.7
20260502204531 16 88 1.6 9.7 0.00 0.00 0.00 63 1013.9